sat.trackr.live / text

‹ back to catalog

BELINTERSAT-1

NORAD 41238 · 2016-001A

PAYLOAD ACTIVE UNKNOWN

§ Identity

Operator
Country
BELA
Launch date
2016-01-15
Launch site
XICLF
Launch vehicle
Mass (kg)
RCS (m²)
35.80

Purposes: comms

External: N2YO · Heavens-Above · Gunter

§ Orbital elements

Epoch: 2026-09-13T02:07:27.261408Z

Period
1,436.08 min
Inclination
0.0223°
Eccentricity
0.0000784
Mean motion
1.00272767 rev/d
Perigee alt
35,783.0 km
Apogee alt
35,789.6 km
Semi-major
42,164.5 km
B*
0.0000e+0
RAAN
84.5924°
Arg perigee
15.3222°
Mean anomaly
335.5547°
Rev number
3,911

§ Raw data

BELINTERSAT-11 41238U 16001A   26256.08850997  .00000095  00000+0  00000+0 0  99952 41238   0.0223  84.5924 0000784  15.3222 335.5547  1.00272767 39111

JSON: /api/v1/satellites/41238 · /tle

For live sub-satellite position, see the globe view (requires WebGL).

§ Visibility from observer

Set your observer location to see the next 7 days of passes ≥ 10°. The values pass through the URL so the page stays shareable.

No JS? Fill the form by hand. The geolocation button needs JavaScript.